Location: Edoum�
(0.9447°N, 10.6482°E)
Time: 23:40:50
(UTC+00:00)

Meteor PRIRODA - Pass Details

Date: 07 June 2020
Orbit: 489 x 511 km, 97.5° (Epoch: 13 July)

Event Time Altitude Azimuth Distance (km) Brightness Sun altitude
Rises 03:48:04 0° 18° (NNE) 2,557 7.9 -19.9°
Reaches altitude 10° 03:50:09 10° 22° (NNE) 1,676 6.9 -19.4°
Maximum altitude 03:53:41 56° 101° (E) 587 4.2 -18.6°
Enters shadow 03:56:35 15° 178° (S) 1,414 5.7 -17.9°
